• In United Kingdom
  • List of Countries
  • For 7 days
  • Water Temperature
  • Satellite Maps
  • Weather Map
  • Weather Widgets
  • user-avatar
    Login

    Hourly Weather Jablowko

    Today, 19 June, Tuesday

    Time Temperature Precipitation Wind Pressure Humidity
    00:00 +16°C° 0 mm 2 mps 756 mmHg 84%
    01:00 +15°C° 0 mm 2 mps 756 mmHg 84%
    02:00 +15°C° 0 mm 2 mps 756 mmHg 84%
    03:00 +15°C° 0 mm 2 mps 755 mmHg 84%
    04:00 +14°C° 0 mm 3 mps 755 mmHg 84%
    05:00 +17°C° 0 mm 3 mps 755 mmHg 78%
    06:00 +19°C° 0 mm 4 mps 755 mmHg 72%
    07:00 +21°C° 0 mm 4 mps 755 mmHg 66%
    08:00 +21°C° 0.1 mm 5 mps 755 mmHg 66%
    09:00 +22°C° 0.1 mm 5 mps 755 mmHg 66%
    10:00 +22°C° 0.1 mm 5 mps 755 mmHg 65%
    11:00 +23°C° 0.1 mm 6 mps 756 mmHg 62%
    12:00 +23°C° 0.1 mm 6 mps 756 mmHg 59%
    13:00 +23°C° 0.1 mm 6 mps 756 mmHg 56%
    14:00 +23°C° 0 mm 6 mps 756 mmHg 56%
    15:00 +23°C° 0 mm 6 mps 756 mmHg 56%
    16:00 +23°C° 0 mm 5 mps 756 mmHg 56%
    17:00 +22°C° 0 mm 5 mps 756 mmHg 61%
    18:00 +22°C° 0 mm 4 mps 756 mmHg 66%
    19:00 +21°C° 0 mm 3 mps 756 mmHg 70%
    20:00 +19°C° 0 mm 3 mps 756 mmHg 76%
    21:00 +18°C° 0 mm 3 mps 757 mmHg 81%
    22:00 +16°C° 0 mm 3 mps 757 mmHg 86%
    23:00 +16°C° 0 mm 3 mps 757 mmHg 88%

    Tomorrow, 20 June, Wednesday

    Time Temperature Precipitation Wind Pressure Humidity
    00:00 +14°C° 0 mm 3 mps 757 mmHg 90%
    01:00 +13°C° 0 mm 3 mps 758 mmHg 92%
    02:00 +13°C° 0 mm 3 mps 758 mmHg 92%
    03:00 +12°C° 0 mm 3 mps 758 mmHg 92%
    04:00 +12°C° 0 mm 3 mps 758 mmHg 92%
    05:00 +14°C° 0 mm 3 mps 758 mmHg 83%
    06:00 +16°C° 0 mm 3 mps 758 mmHg 75%
    07:00 +18°C° 0 mm 4 mps 759 mmHg 66%
    08:00 +19°C° 0 mm 3 mps 759 mmHg 60%
    09:00 +20°C° 0 mm 3 mps 759 mmHg 53%
    10:00 +22°C° 0 mm 3 mps 759 mmHg 47%
    11:00 +24°C° 0 mm 3 mps 759 mmHg 45%
    12:00 +25°C° 0 mm 4 mps 758 mmHg 43%
    13:00 +26°C° 0 mm 4 mps 758 mmHg 40%
    14:00 +26°C° 0 mm 4 mps 758 mmHg 41%
    15:00 +26°C° 0 mm 4 mps 757 mmHg 42%
    16:00 +27°C° 0 mm 4 mps 757 mmHg 43%
    17:00 +25°C° 0 mm 3 mps 757 mmHg 50%
    18:00 +24°C° 0 mm 2 mps 756 mmHg 56%
    19:00 +23°C° 0 mm 2 mps 756 mmHg 62%
    20:00 +21°C° 0 mm 2 mps 756 mmHg 67%
    21:00 +19°C° 0 mm 2 mps 756 mmHg 71%
    22:00 +18°C° 0 mm 2 mps 755 mmHg 75%
    23:00 +18°C° 0 mm 2 mps 755 mmHg 78%

    Day after tomorrow, 21 June, Thursday

    Time Temperature Precipitation Wind Pressure Humidity
    00:00 +18°C° 0 mm 3 mps 755 mmHg 81%
    01:00 +17°C° 0 mm 3 mps 754 mmHg 84%
    02:00 +17°C° 0 mm 3 mps 754 mmHg 85%
    03:00 +18°C° 0 mm 3 mps 753 mmHg 85%
    04:00 +18°C° 0 mm 4 mps 753 mmHg 86%
    05:00 +19°C° 0 mm 4 mps 752 mmHg 81%
    06:00 +21°C° 0 mm 5 mps 752 mmHg 77%
    07:00 +23°C° 0 mm 5 mps 751 mmHg 73%
    08:00 +25°C° 0.3 mm 5 mps 751 mmHg 69%
    09:00 +26°C° 0.3 mm 6 mps 750 mmHg 66%
    10:00 +27°C° 0.3 mm 6 mps 749 mmHg 62%
    11:00 +27°C° 0.7 mm 6 mps 749 mmHg 64%
    12:00 +27°C° 0.7 mm 6 mps 748 mmHg 66%
    13:00 +27°C° 0.7 mm 5 mps 747 mmHg 68%
    14:00 +26°C° 1.2 mm 5 mps 746 mmHg 72%
    15:00 +25°C° 1.2 mm 5 mps 746 mmHg 76%
    16:00 +23°C° 1.2 mm 6 mps 745 mmHg 80%
    17:00 +20°C° 0.6 mm 5 mps 746 mmHg 80%
    18:00 +16°C° 0.6 mm 5 mps 746 mmHg 81%
    19:00 +13°C° 0.6 mm 5 mps 746 mmHg 81%
    20:00 +13°C° 0 mm 5 mps 746 mmHg 81%
    21:00 +11°C° 0 mm 6 mps 747 mmHg 80%
    22:00 +11°C° 0 mm 7 mps 747 mmHg 79%
    23:00 +10°C° 0 mm 7 mps 747 mmHg 78%

    22 June, Friday

    Time Temperature Precipitation Wind Pressure Humidity
    00:00 +10°C° 0 mm 7 mps 747 mmHg 78%
    01:00 +9°C° 0 mm 7 mps 747 mmHg 77%
    02:00 +9°C° 0 mm 7 mps 747 mmHg 77%
    03:00 +9°C° 0 mm 7 mps 747 mmHg 77%
    04:00 +9°C° 0 mm 7 mps 747 mmHg 77%
    05:00 +10°C° 0 mm 7 mps 748 mmHg 73%
    06:00 +10°C° 0 mm 8 mps 748 mmHg 69%
    07:00 +11°C° 0 mm 8 mps 748 mmHg 65%
    08:00 +11°C° 0 mm 8 mps 748 mmHg 64%
    09:00 +11°C° 0 mm 8 mps 748 mmHg 64%
    10:00 +12°C° 0 mm 8 mps 749 mmHg 63%
    11:00 +12°C° 0.2 mm 8 mps 748 mmHg 64%
    12:00 +12°C° 0.2 mm 8 mps 748 mmHg 66%
    13:00 +13°C° 0.2 mm 8 mps 748 mmHg 67%
    14:00 +14°C° 0.4 mm 7 mps 749 mmHg 68%
    15:00 +14°C° 0.4 mm 7 mps 749 mmHg 69%
    16:00 +14°C° 0.4 mm 6 mps 749 mmHg 71%
    17:00 +14°C° 0.2 mm 5 mps 749 mmHg 71%
    18:00 +14°C° 0.2 mm 4 mps 749 mmHg 72%
    19:00 +14°C° 0.2 mm 4 mps 749 mmHg 72%
    20:00 +13°C° 0 mm 4 mps 749 mmHg 73%
    21:00 +12°C° 0 mm 4 mps 750 mmHg 74%
    22:00 +11°C° 0 mm 4 mps 750 mmHg 74%
    23:00 +10°C° 0 mm 4 mps 750 mmHg 78%

    23 June, Saturday

    Time Temperature Precipitation Wind Pressure Humidity
    00:00 +10°C° 0 mm 4 mps 750 mmHg 82%
    01:00 +8°C° 0 mm 4 mps 750 mmHg 85%
    02:00 +8°C° 0 mm 4 mps 750 mmHg 88%
    03:00 +8°C° 0 mm 4 mps 750 mmHg 91%
    04:00 +9°C° 0 mm 3 mps 751 mmHg 94%
    05:00 +10°C° 0 mm 4 mps 751 mmHg 88%
    06:00 +12°C° 0 mm 4 mps 751 mmHg 82%
    07:00 +14°C° 0 mm 4 mps 751 mmHg 75%
    08:00 +15°C° 0.2 mm 4 mps 752 mmHg 70%
    09:00 +17°C° 0.2 mm 4 mps 752 mmHg 64%
    10:00 +18°C° 0.2 mm 4 mps 752 mmHg 58%
    11:00 +19°C° 0.3 mm 4 mps 752 mmHg 57%
    12:00 +19°C° 0.3 mm 5 mps 752 mmHg 55%
    13:00 +19°C° 0.3 mm 5 mps 752 mmHg 54%
    14:00 +19°C° 0.1 mm 5 mps 752 mmHg 51%
    15:00 +19°C° 0.1 mm 5 mps 753 mmHg 47%
    16:00 +19°C° 0.1 mm 6 mps 753 mmHg 44%
    17:00 +17°C° 0 mm 5 mps 753 mmHg 49%
    18:00 +17°C° 0 mm 4 mps 753 mmHg 54%
    19:00 +17°C° 0 mm 3 mps 753 mmHg 58%
    20:00 +15°C° 0 mm 2 mps 753 mmHg 63%
    21:00 +14°C° 0 mm 2 mps 753 mmHg 67%
    22:00 +12°C° 0 mm 2 mps 754 mmHg 71%
    23:00 +12°C° 0 mm 2 mps 754 mmHg 77%

    24 June, Sunday

    Time Temperature Precipitation Wind Pressure Humidity
    00:00 +10°C° 0 mm 3 mps 754 mmHg 82%
    01:00 +10°C° 0 mm 3 mps 754 mmHg 87%
    02:00 +10°C° 0 mm 3 mps 754 mmHg 89%
    03:00 +10°C° 0 mm 3 mps 754 mmHg 91%
    04:00 +10°C° 0 mm 3 mps 754 mmHg 93%
    05:00 +11°C° 0 mm 3 mps 754 mmHg 88%
    06:00 +13°C° 0 mm 4 mps 754 mmHg 83%
    07:00 +14°C° 0 mm 4 mps 754 mmHg 78%
    08:00 +15°C° 0.2 mm 4 mps 754 mmHg 75%
    09:00 +17°C° 0.2 mm 4 mps 755 mmHg 73%
    10:00 +17°C° 0.2 mm 4 mps 755 mmHg 71%
    11:00 +18°C° 0.6 mm 4 mps 755 mmHg 71%
    12:00 +18°C° 0.6 mm 4 mps 755 mmHg 70%
    13:00 +19°C° 0.6 mm 4 mps 755 mmHg 70%
    14:00 +19°C° 0.7 mm 3 mps 755 mmHg 71%
    15:00 +19°C° 0.7 mm 3 mps 755 mmHg 72%
    16:00 +19°C° 0.7 mm 3 mps 755 mmHg 72%
    17:00 +18°C° 0.6 mm 3 mps 755 mmHg 76%
    18:00 +17°C° 0.6 mm 2 mps 755 mmHg 80%
    19:00 +17°C° 0.6 mm 2 mps 755 mmHg 83%
    20:00 +15°C° 0.1 mm 2 mps 755 mmHg 86%
    21:00 +14°C° 0.1 mm 2 mps 756 mmHg 89%
    22:00 +13°C° 0.1 mm 2 mps 756 mmHg 92%
    23:00 +13°C° 0 mm 2 mps 756 mmHg 93%
    Show more